TimePST,TemperatureF,Dew PointF,Humidity,Sea Level PressureIn,VisibilityMPH,Wind Direction,Wind SpeedMPH,Gust SpeedMPH,PrecipitationIn,Events,Conditions,WindDirDegrees,DateUTC
12:58 AM,46.6,24.8,43,30.32,10.0,NE,5.8,18.4,N/A,,Clear,50,2013-02-15 08:58:00
1:58 AM,46.9,24.3,41,30.32,10.0,NE,3.5,-,N/A,,Clear,50,2013-02-15 09:58:00
2:58 AM,45.7,24.6,44,30.32,10.0,NNE,1.2,17.3,N/A,,Clear,20,2013-02-15 10:58:00
3:58 AM,47.8,23.7,39,30.32,10.0,Calm,Calm,-,N/A,,Clear,0,2013-02-15 11:58:00
4:58 AM,48.0,22.8,37,30.35,10.0,NNE,1.2,-,N/A,,Clear,20,2013-02-15 12:58:00
5:58 AM,50.2,22.5,34,30.36,10.0,Calm,Calm,-,N/A,,Clear,0,2013-02-15 13:58:00
6:58 AM,45.5,22.6,41,30.38,10.0,Calm,Calm,-,N/A,,Clear,0,2013-02-15 14:58:00
7:58 AM,48.9,23.4,37,30.41,10.0,Calm,Calm,-,N/A,,Clear,0,2013-02-15 15:58:00
8:58 AM,54.9,21.6,27,30.41,10.0,NE,16.1,-,N/A,,Clear,40,2013-02-15 16:58:00
9:58 AM,57.6,22.3,26,30.40,10.0,Variable,3.5,-,N/A,,Clear,0,2013-02-15 17:58:00
10:58 AM,60.8,21.6,22,30.39,10.0,West,4.6,-,N/A,,Clear,270,2013-02-15 18:58:00
11:58 AM,62.8,20.3,20,30.36,10.0,NNW,8.1,-,N/A,,Clear,340,2013-02-15 19:58:00
12:58 PM,65.1,19.6,17,30.34,10.0,East,12.7,-,N/A,,Clear,80,2013-02-15 20:58:00
1:58 PM,66.6,17.8,15,30.32,10.0,NE,11.5,-,N/A,,Clear,50,2013-02-15 21:58:00
2:58 PM,67.5,18.7,16,30.30,10.0,NNE,16.1,-,N/A,,Clear,30,2013-02-15 22:58:00
3:00 PM,68.0,19.4,16,30.31,10.0,North,13.8,24.2,N/A,,Clear,350,2013-02-15 23:00:00
3:58 PM,67.5,18.7,16,30.29,10.0,NE,9.2,-,N/A,,Clear,40,2013-02-15 23:58:00
4:58 PM,66.6,17.8,15,30.28,10.0,NE,9.2,-,N/A,,Clear,40,2013-02-16 00:58:00
5:58 PM,63.5,19.0,18,30.30,10.0,Calm,Calm,-,N/A,,Clear,0,2013-02-16 01:58:00
6:58 PM,55.6,19.0,24,30.32,10.0,ENE,5.8,-,N/A,,Clear,70,2013-02-16 02:58:00
7:58 PM,53.4,19.0,26,30.34,10.0,Calm,Calm,-,N/A,,Clear,0,2013-02-16 03:58:00
8:58 PM,49.5,19.0,30,30.35,10.0,NE,3.5,-,N/A,,Clear,50,2013-02-16 04:58:00
9:58 PM,49.1,18.7,30,30.35,10.0,NE,2.3,-,N/A,,Clear,40,2013-02-16 05:58:00
10:58 PM,47.7,19.9,33,30.36,10.0,NNW,4.6,-,N/A,,Clear,340,2013-02-16 06:58:00
11:58 PM,47.3,20.3,34,30.35,10.0,NNW,5.8,-,N/A,,Clear,340,2013-02-16 07:58:00